Morrisville, VT

7:02 AM EDT on August 17, 2017 (GMT -0400)
Morrisville Stowe State

Weather History for KMVL - September, 2012

Change the Weather History Date:

Tuesday, September 18, 2012

  Actual Average Record
Temperature  
Mean Temperature 58 °F 57 °F  
Max Temperature 71 °F 69 °F 84 °F (2015)
Min Temperature 45 °F 45 °F 37 °F (1998)
Degree Days  
Heating Degree Days 7 8  
Month to date heating degree days 86 105  
Since 1 July heating degree days 128 200  
Cooling Degree Days 0 0  
Month to date cooling degree days 24 13  
Year to date cooling degree days 408 260  
Growing Degree Days 7 (Base 50)    
Moisture  
Dew Point 53 °F    
Average Humidity 86    
Maximum Humidity 93    
Minimum Humidity 78    
Precipitation  
Precipitation 0.61 in 0.13 in 0.91 in (1948)
Month to date precipitation 2.49 1.90  
Year to date precipitation 12.71 25.66  
Sea Level Pressure  
Sea Level Pressure 29.81 in    
Wind  
Wind Speed 5 mph (South)    
Max Wind Speed 21 mph    
Max Gust Speed 38 mph    
Visibility 6 miles    
Events Rain    
T = Trace of Precipitation, MM = Missing Value Source: NWS Daily Summary

Daily Weather History Graph

Daily Weather History Graph

Search for Another Location

Airport or City:

Trip Planner

Search our weather history database for the weather conditions in past years. The results will help you decide how hot, cold, wet, or windy it might be!

Date:

Astronomy

Sep. 18, 2012 Rise Set
Actual Time 6:33 AM EDT 6:54 PM EDT
Civil Twilight 6:04 AM EDT 7:23 PM EDT
Nautical Twilight 5:29 AM EDT 7:57 PM EDT
Astronomical Twilight 4:54 AM EDT 8:33 PM EDT
Moon 9:39 AM EDT (9/18) 8:04 PM EDT (9/18)
Length of Visible Light 13h 19m
Length of Day
12h 21m
Waxing Crescent, 9% of the Moon is Illuminated
Sep 18
Waxing Crescent
Sep 22
First Quarter
Sep 29
Full
Oct 8
Last Quarter
Oct 15
New

Hourly Weather History & Observations

Time (EDT) Temp. Dew Point Humidity Pressure Visibility Wind Dir Wind Speed Gust Speed Precip Events Conditions
12:54 AM 50.0 °F 48.0 °F 93% 30.01 in 7.0 mi Calm Calm - N/A   Clear
1:54 AM 48.9 °F 46.9 °F 93% 30.01 in 6.0 mi Calm Calm - N/A   Clear
2:21 AM 48.2 °F 46.4 °F 93% 29.99 in 4.0 mi Calm Calm - N/A   Scattered Clouds
2:51 AM 48.2 °F 46.4 °F 93% 29.99 in 2.5 mi Calm Calm - N/A   Scattered Clouds
2:54 AM 48.0 °F 46.0 °F 93% 29.99 in 4.0 mi Calm Calm - N/A   Scattered Clouds
3:08 AM 48.2 °F 46.4 °F 93% 29.98 in 3.0 mi Calm Calm - N/A   Mostly Cloudy
4:04 AM 46.4 °F 44.6 °F 93% 29.96 in 6.0 mi Calm Calm - N/A   Scattered Clouds
4:23 AM 44.6 °F 44.6 °F 100% 29.96 in 2.0 mi Calm Calm - N/A   Mostly Cloudy
4:27 AM 44.6 °F 44.6 °F 100% 29.96 in 1.0 mi Calm Calm - N/A   Mist
4:38 AM 44.6 °F 44.6 °F 100% 29.96 in 2.5 mi Calm Calm - N/A   Mostly Cloudy
4:43 AM 44.6 °F 44.6 °F 100% 29.95 in 7.0 mi Calm Calm - N/A   Scattered Clouds
4:54 AM 45.0 °F 43.0 °F 93% 29.95 in 9.0 mi Calm Calm - N/A   Partly Cloudy
5:28 AM 46.4 °F 42.8 °F 87% 29.94 in 8.0 mi Calm Calm - N/A   Mostly Cloudy
5:48 AM 44.6 °F 44.6 °F 100% 29.93 in 1.8 mi Calm Calm - N/A   Overcast
5:54 AM 46.0 °F 44.1 °F 93% 29.94 in 0.8 mi Calm Calm - N/A   Mist
6:01 AM 46.4 °F 44.6 °F 93% 29.93 in 1.2 mi Calm Calm - N/A   Overcast
6:10 AM 46.4 °F 44.6 °F 93% 29.93 in 3.0 mi Calm Calm - N/A   Mostly Cloudy
6:19 AM 46.4 °F 44.6 °F 93% 29.93 in 6.0 mi Calm Calm - N/A   Scattered Clouds
6:54 AM 48.0 °F 46.0 °F 93% 29.94 in 7.0 mi Calm Calm - N/A   Clear
7:54 AM 51.1 °F 48.9 °F 92% 29.93 in 10.0 mi Calm Calm - N/A   Overcast
8:54 AM 59.0 °F 53.1 °F 81% 29.92 in 10.0 mi SSW 3.5 mph - N/A   Overcast
9:43 AM 60.8 °F 53.6 °F 77% 29.91 in 10.0 mi South 3.5 mph - N/A   Overcast
9:54 AM 61.0 °F 54.0 °F 78% 29.92 in 10.0 mi Variable 4.6 mph - N/A   Mostly Cloudy
10:54 AM 61.0 °F 55.9 °F 83% 29.88 in 8.0 mi Variable 3.5 mph - 0.00 in Rain Light Rain
11:54 AM 61.0 °F 57.0 °F 87% 29.83 in 3.0 mi Calm Calm - 0.04 in Rain Light Rain
12:20 PM 60.8 °F 57.2 °F 88% 29.82 in 2.5 mi Calm Calm - 0.06 in Rain Rain
12:27 PM 60.8 °F 57.2 °F 88% 29.81 in 3.0 mi Calm Calm - 0.07 in Rain Rain
12:54 PM 61.0 °F 57.9 °F 90% 29.80 in 3.0 mi Variable 3.5 mph - 0.13 in Rain Light Rain
1:54 PM 63.0 °F 59.0 °F 87% 29.76 in 5.0 mi South 9.2 mph - 0.02 in Rain Light Rain
2:54 PM 64.9 °F 60.1 °F 84% 29.70 in 10.0 mi SSE 11.5 mph 21.9 mph 0.01 in Rain Light Rain
3:28 PM 64.4 °F 60.8 °F 88% 29.65 in 6.0 mi South 12.7 mph 28.8 mph 0.01 in Rain Light Rain
3:54 PM 66.0 °F 61.0 °F 84% 29.65 in 7.0 mi South 9.2 mph 31.1 mph 0.01 in Rain Light Rain
4:43 PM 66.2 °F 62.6 °F 88% 29.60 in 8.0 mi South 15.0 mph 28.8 mph 0.00 in Rain Light Rain
4:54 PM 66.0 °F 62.1 °F 87% 29.60 in 7.0 mi South 10.4 mph 38.0 mph 0.00 in Rain Light Rain
5:34 PM 66.2 °F 62.6 °F 88% 29.57 in 2.0 mi SSE 11.5 mph 28.8 mph 0.03 in Rain Rain
5:54 PM 66.9 °F 62.1 °F 84% 29.57 in 4.0 mi South 9.2 mph 21.9 mph 0.04 in Rain Light Rain
6:54 PM 70.0 °F 63.0 °F 78% 29.54 in 10.0 mi South 18.4 mph 34.5 mph 0.00 in Rain Light Rain
7:54 PM 70.0 °F 64.0 °F 81% 29.55 in 6.0 mi South 15.0 mph 26.5 mph 0.04 in Rain Rain
8:54 PM 69.1 °F 64.9 °F 87% 29.54 in 3.0 mi SW 3.5 mph - 0.16 in Rain Rain
9:02 PM 68.0 °F 64.4 °F 88% 29.54 in 2.5 mi SSW 4.6 mph - 0.04 in Rain Heavy Rain
9:54 PM 68.0 °F 64.9 °F 90% 29.55 in 10.0 mi Variable 4.6 mph - 0.14 in Rain Light Rain
10:54 PM 68.0 °F 64.9 °F 90% 29.57 in 10.0 mi SSW 5.8 mph - 0.02 in   Overcast
11:54 PM 66.9 °F 62.1 °F 84% 29.58 in 10.0 mi SSW 8.1 mph - N/A   Clear